[[{"header":{"parameterUnit":"m.s-1","parameterCategory":1,"la1":30.2991,"la2":30.254,"lo1":-89.0895,"lo2":-89.0444,"dy":0.0017,"dx":0.0017,"nx":28,"ny":28,"refTime":"2024-02-15T03:00:00:Z","depth":0,"parameterNumber":2,"parameterNumberName":"U-component_of_WINDS"},"data":[0,0,0,0,0,0,0,0,0,0,0,0,0,0,0,0,0,0,0,0,0,0,0,0,0,0,0,0,0,0,0,0,0,0,0,0,0,0,0,0,0,0,0,0,0,0,0,0,0,0,0,0,0,0,0,0,0,0,-1.2351,-1.235,0,-1.228,-1.2279,-1.2278,-1.2201,-1.22,-1.2199,-1.2198,-1.2127,-1.2126,-1.2125,0,0,0,0,0,0,0,0,0,0,0,0,0,-1.2425,-1.2424,-1.2351,-1.235,-1.235,-1.228,-1.2279,-1.2278,-1.2201,-1.22,-1.2199,-1.2197,-1.2127,-1.2126,-1.2125,0,0,0,0,0,0,0,0,0,0,0,0,0,-1.2377,-1.2423,-1.2351,-1.2303,-1.2298,-1.228,-1.2279,-1.2278,-1.2202,-1.22,-1.2198,-1.2197,-1.2128,-1.2126,-1.2125,-1.215,0,0,-1.2121,-1.2121,0,0,0,0,0,0,0,0,-1.238,-1.2375,-1.2311,-1.2306,-1.23,-1.2248,-1.2279,-1.2235,-1.2202,-1.2238,-1.2198,-1.2196,-1.2169,-1.2164,-1.2154,-1.2147,-1.2144,-1.2121,-1.212,-1.212,-1.2119,0,0,0,0,0,0,0,-1.2383,-1.2377,-1.2323,-1.231,-1.2304,-1.2286,-1.2277,-1.227,-1.2214,-1.2235,-1.2229,-1.2222,-1.2165,-1.2156,-1.2152,-1.2143,-1.2121,-1.212,-1.2119,-1.2119,-1.2155,-1.2157,0,0,0,0,0,0,-1.2394,-1.238,-1.2325,-1.2321,-1.2337,-1.2286,-1.2276,-1.2266,-1.2213,-1.2204,-1.2223,-1.2218,-1.2159,-1.2153,-1.2149,-1.2176,-1.212,-1.2118,-1.2118,-1.2153,-1.2155,-1.2157,0,0,0,0,0,0,-1.2395,-1.2389,-1.2328,-1.2349,-1.234,-1.2286,-1.2276,-1.2266,-1.2256,-1.2204,-1.2194,-1.2223,-1.2157,-1.2151,-1.2151,-1.2173,-1.2118,-1.2117,-1.2151,-1.2154,-1.2156,-1.2231,0,0,0,0,0,0,-1.2398,-1.239,-1.2399,-1.235,-1.2339,-1.233,-1.2277,-1.2266,-1.2253,-1.2246,-1.2202,-1.2193,-1.2155,-1.2153,-1.215,-1.217,-1.2116,-1.2149,-1.2152,-1.2155,-1.2226,-1.2236,-1.2244,0,0,0,0,0,-1.2401,-1.2422,-1.2399,-1.2393,-1.2348,-1.2332,-1.2326,-1.2281,-1.2255,-1.2264,-1.2231,-1.2194,-1.2171,-1.2154,-1.2149,-1.217,-1.2147,-1.2151,-1.2155,-1.2222,-1.2234,-1.2244,0,0,0,0,0,0,-1.2475,-1.2415,-1.2389,-1.2395,-1.2369,-1.2319,-1.2328,-1.2295,-1.2276,-1.227,-1.2217,-1.2207,-1.2214,-1.2191,-1.2173,-1.2192,-1.2154,-1.2157,-1.2207,-1.2217,-1.2226,-1.2232,-1.2115,0,0,0,0,0,-1.2493,-1.2484,-1.2432,-1.2442,-1.2431,-1.2382,-1.2373,-1.2341,-1.2312,-1.2301,-1.2268,-1.2243,-1.2229,-1.2222,-1.2207,-1.2223,-1.2213,-1.2235,-1.2243,-1.2251,-1.2255,-1.2263,-1.2273,-1.217,-1.217,-1.217,0,0,-1.2528,-1.2494,-1.2492,-1.2457,-1.2433,-1.2426,-1.2373,-1.2367,-1.2362,-1.23,-1.2298,-1.2274,-1.2242,-1.225,-1.2252,-1.2232,-1.2281,-1.2256,-1.2262,-1.2262,-1.2269,-1.2278,-1.2287,-1.2173,-1.2172,-1.2172,0,0,-1.2589,-1.2562,-1.2569,-1.2546,-1.2511,-1.2478,-1.248,-1.2435,-1.2416,-1.2413,-1.2367,-1.2361,-1.2339,-1.2319,-1.2306,-1.2362,-1.2328,-1.2358,-1.2405,-1.2414,-1.2422,-1.2429,-1.2451,-1.2459,-1.2362,-1.2362,-1.2362,0,-1.2638,-1.2625,-1.2577,-1.2574,-1.2561,-1.2505,-1.2512,-1.2493,-1.2455,-1.2448,-1.2425,-1.2398,-1.2372,-1.2376,-1.239,-1.238,-1.2382,-1.2363,-1.2425,-1.2431,-1.2437,-1.2457,-1.2465,-1.2366,-1.2366,-1.2365,-1.2365,0,-1.2688,-1.268,-1.269,-1.2654,-1.2642,-1.2645,-1.2598,-1.2592,-1.2562,-1.2533,-1.2532,-1.2499,-1.2477,-1.2476,-1.2446,-1.2476,-1.2465,-1.2434,-1.2395,-1.2452,-1.247,-1.2477,-1.2372,-1.237,-1.2369,-1.2368,0,0,-1.2794,-1.2732,-1.2737,-1.2721,-1.2679,-1.2672,-1.2673,-1.2652,-1.2648,-1.2624,-1.2625,-1.2609,-1.2581,-1.2566,-1.2534,-1.2542,-1.2591,-1.251,-1.2509,-1.2528,-1.2624,-1.2649,-1.2658,-1.2568,-1.2569,-1.257,-1.2628,0,-1.2849,-1.2846,-1.2803,-1.2814,-1.2807,-1.2754,-1.2755,-1.273,-1.2703,-1.2695,-1.2665,-1.2655,-1.2618,-1.2609,-1.2614,-1.2584,-1.261,-1.2579,-1.257,-1.257,-1.258,-1.2667,-1.2692,-1.2748,-1.2634,-1.2635,-1.2636,0,-1.2912,-1.2892,-1.2902,-1.2861,-1.2856,-1.2858,-1.2836,-1.2828,-1.2799,-1.2779,-1.2764,-1.2727,-1.2727,-1.269,-1.269,-1.267,-1.2664,-1.2649,-1.265,-1.2648,-1.2607,-1.267,-1.2765,-1.2774,-1.2647,-1.2646,-1.2645,0,-1.299,-1.2966,-1.2969,-1.2957,-1.2909,-1.2912,-1.2892,-1.2861,-1.2852,-1.2833,-1.2827,-1.2808,-1.2799,-1.2786,-1.2747,-1.2723,-1.2752,-1.2711,-1.2737,-1.2739,-1.2747,-1.2747,-1.2844,-1.2741,-1.2741,-1.2741,-1.274,0,-1.3057,-1.3065,-1.3004,-1.3006,-1.3015,-1.2966,-1.2976,-1.2952,-1.2926,-1.2923,-1.2876,-1.2875,-1.2822,-1.2816,-1.2785,-1.2791,-1.2787,-1.2772,-1.2764,-1.2777,-1.2779,-1.2773,-1.2768,-1.2743,-1.2742,-1.2742,-1.2741,0,-1.3146,-1.3105,-1.3105,-1.306,-1.3049,-1.3057,-1.3019,-1.302,-1.2991,-1.2988,-1.2985,-1.2939,-1.293,-1.2889,-1.2869,-1.2848,-1.2866,-1.2849,-1.2875,-1.287,-1.29,-1.2898,-1.2997,-1.3009,-1.2897,-1.2898,-1.2899,0,-1.3191,-1.3197,-1.3153,-1.3147,-1.313,-1.3122,-1.3112,-1.3065,-1.3057,-1.3026,-1.3032,-1.3018,-1.3005,-1.2992,-1.2958,-1.2943,-1.2926,-1.2962,-1.2924,-1.2938,-1.2929,-1.293,-1.2931,-1.2971,-1.2972,-1.2973,-1.2974,0,-1.3277,-1.3257,-1.3245,-1.3226,-1.3216,-1.3199,-1.3179,-1.3177,-1.3126,-1.312,-1.3109,-1.3099,-1.3079,-1.3067,-1.3047,-1.3028,-1.2994,-1.2987,-1.2992,-1.3006,-1.3022,-1.3016,-1.2899,-1.2985,-1.2984,-1.2983,-1.2982,-1.2982,-1.3347,-1.335,-1.332,-1.3308,-1.3289,-1.3272,-1.3271,-1.3242,-1.3232,-1.3212,-1.3185,-1.3179,-1.3152,-1.3121,-1.3105,-1.3101,-1.3081,-1.3089,-1.3091,-1.3094,-1.3101,-1.3022,-1.3097,-1.3096,-1.3096,-1.3096,-1.3095,0,-1.3432,-1.341,-1.34,-1.3374,-1.3366,-1.3333,-1.331,-1.3305,-1.33,-1.3278,-1.3266,-1.3255,-1.3243,-1.3209,-1.3194,-1.3197,-1.3181,-1.3195,-1.3195,-1.3192,-1.3119,-1.3116,-1.3208,-1.3208,-1.3208,-1.3208,-1.3208,-1.3208,-1.3475,-1.348,-1.3456,-1.3451,-1.3429,-1.3422,-1.3412,-1.3397,-1.3379,-1.3369,-1.3359,-1.3336,-1.331,-1.3293,-1.3282,-1.3272,-1.327,-1.329,-1.3275,-1.3207,-1.3197,-1.3186,-1.3184,-1.3289,-1.3289,-1.3349,-1.3349,-1.335]},{"header":{"parameterUnit":"m.s-1","parameterCategory":1,"la1":30.2991,"la2":30.254,"lo1":-89.0895,"lo2":-89.0444,"dy":0.0017,"dx":0.0017,"nx":28,"ny":28,"refTime":"2024-02-15T03:00:00:Z","depth":0,"parameterNumber":3,"parameterNumberName":"V-component_of_WINDS"},"data":[0,0,0,0,0,0,0,0,0,0,0,0,0,0,0,0,0,0,0,0,0,0,0,0,0,0,0,0,0,0,0,0,0,0,0,0,0,0,0,0,0,0,0,0,0,0,0,0,0,0,0,0,0,0,0,0,0,0,1.1694,1.1694,0,1.1672,1.1672,1.1672,1.1691,1.1692,1.1693,1.1693,1.1667,1.1665,1.1664,0,0,0,0,0,0,0,0,0,0,0,0,0,1.1748,1.1747,1.1694,1.1694,1.1693,1.1672,1.1672,1.1672,1.1691,1.1692,1.1693,1.1694,1.1667,1.1665,1.1663,0,0,0,0,0,0,0,0,0,0,0,0,0,1.1725,1.1746,1.1694,1.1701,1.1701,1.1672,1.1672,1.1672,1.1691,1.1692,1.1693,1.1694,1.1668,1.1665,1.1663,1.1625,0,0,1.1657,1.1656,0,0,0,0,0,0,0,0,1.1726,1.1723,1.17,1.17,1.17,1.1686,1.1681,1.1656,1.169,1.1694,1.1694,1.1695,1.1672,1.1669,1.1662,1.1624,1.1623,1.1656,1.1655,1.1654,1.1653,0,0,0,0,0,0,0,1.1728,1.1724,1.1685,1.1699,1.17,1.1703,1.1701,1.1676,1.1676,1.1694,1.1696,1.1693,1.1672,1.1664,1.1662,1.1623,1.1656,1.1654,1.1653,1.1652,1.1551,1.1549,0,0,0,0,0,0,1.1729,1.1725,1.1686,1.1685,1.1717,1.1701,1.1699,1.1689,1.1677,1.1676,1.1692,1.1694,1.1668,1.1664,1.1661,1.1614,1.1654,1.1652,1.1651,1.1552,1.155,1.1549,0,0,0,0,0,0,1.173,1.1725,1.1687,1.1705,1.1701,1.1699,1.1688,1.1688,1.1681,1.1675,1.1675,1.1684,1.1668,1.1664,1.1634,1.1614,1.1651,1.1649,1.1554,1.1551,1.155,1.1521,0,0,0,0,0,0,1.1732,1.1726,1.1712,1.1705,1.1699,1.1662,1.1686,1.1687,1.1677,1.168,1.1668,1.1667,1.1669,1.1637,1.1632,1.1611,1.1647,1.1555,1.1553,1.155,1.1524,1.1519,1.1514,0,0,0,0,0,1.1734,1.1705,1.1712,1.1707,1.1683,1.166,1.1657,1.1661,1.1676,1.1661,1.1658,1.1667,1.1617,1.1634,1.1628,1.1606,1.1557,1.1553,1.155,1.1526,1.152,1.1514,0,0,0,0,0,0,1.1708,1.1704,1.1711,1.168,1.167,1.1664,1.1646,1.1654,1.164,1.1642,1.1647,1.1644,1.1612,1.1607,1.1625,1.1568,1.1589,1.1585,1.1573,1.1566,1.1561,1.1562,1.1645,0,0,0,0,0,1.17,1.1683,1.1679,1.1652,1.1647,1.1647,1.1637,1.1642,1.1631,1.1627,1.1621,1.161,1.1591,1.1579,1.1562,1.1524,1.1521,1.1506,1.1501,1.1497,1.1492,1.147,1.1463,1.1539,1.1539,1.1539,0,0,1.168,1.1676,1.1665,1.1646,1.164,1.1621,1.1644,1.1623,1.1608,1.1623,1.1595,1.159,1.1578,1.1543,1.1528,1.1538,1.1471,1.1493,1.149,1.1487,1.1466,1.1459,1.1453,1.1537,1.1537,1.1537,0,0,1.1635,1.1631,1.1606,1.16,1.159,1.159,1.1584,1.1577,1.1574,1.1546,1.1557,1.1539,1.1508,1.1498,1.1488,1.144,1.1447,1.1434,1.1406,1.1385,1.1378,1.1373,1.1353,1.1346,1.143,1.143,1.143,0,1.1611,1.1585,1.1592,1.1571,1.1561,1.1576,1.155,1.1543,1.1527,1.152,1.1532,1.1492,1.1485,1.1448,1.1436,1.1429,1.142,1.1434,1.1379,1.1374,1.1369,1.135,1.1343,1.1428,1.1428,1.1428,1.1429,0,1.1555,1.1537,1.1518,1.1503,1.1492,1.1469,1.1471,1.1459,1.1464,1.1463,1.1433,1.1425,1.1406,1.1398,1.1402,1.136,1.1367,1.1379,1.1399,1.136,1.1342,1.1335,1.1426,1.1426,1.1427,1.1427,0,0,1.1492,1.1483,1.1475,1.1468,1.1459,1.1443,1.142,1.1403,1.1391,1.138,1.1359,1.1332,1.1343,1.1333,1.1337,1.1318,1.1277,1.1332,1.1332,1.132,1.1227,1.1216,1.1208,1.1283,1.1282,1.1281,1.1227,0,1.1444,1.1404,1.1411,1.1371,1.1353,1.1367,1.1346,1.1337,1.1335,1.1318,1.1316,1.1296,1.1314,1.1307,1.129,1.1286,1.1258,1.129,1.126,1.1259,1.126,1.1199,1.1187,1.1137,1.1221,1.122,1.1219,0,1.1383,1.1371,1.133,1.1322,1.1315,1.1296,1.128,1.1264,1.1254,1.1254,1.1242,1.1249,1.1224,1.1247,1.121,1.1232,1.122,1.1217,1.1215,1.121,1.1235,1.1189,1.1122,1.1113,1.1208,1.1209,1.121,0,1.1337,1.1311,1.1282,1.1277,1.1268,1.1254,1.1249,1.124,1.1229,1.1215,1.1207,1.119,1.1179,1.1165,1.1166,1.1183,1.1128,1.1152,1.1125,1.1125,1.1111,1.1111,1.1037,1.1108,1.1108,1.1108,1.1108,0,1.1282,1.1256,1.1262,1.1244,1.1214,1.1222,1.1192,1.1189,1.1181,1.1161,1.1173,1.1154,1.1159,1.1139,1.114,1.1108,1.1104,1.1102,1.1102,1.1099,1.1099,1.1089,1.1092,1.1106,1.1107,1.1107,1.1107,0,1.1225,1.1228,1.1198,1.1193,1.1191,1.1169,1.1163,1.1146,1.1146,1.1121,1.1115,1.1114,1.1092,1.1093,1.1068,1.1068,1.1028,1.1034,1.1032,1.1032,1.1004,1.1006,1.0919,1.0907,1.0989,1.0988,1.0988,0,1.1188,1.1168,1.1161,1.1149,1.1144,1.1126,1.1114,1.1121,1.1108,1.1095,1.1078,1.1058,1.1041,1.1005,1.1001,1.0981,1.0984,1.0956,1.0981,1.0979,1.0981,1.0981,1.0977,1.0949,1.0949,1.0948,1.0947,0,1.1121,1.1124,1.1108,1.1093,1.1079,1.1067,1.1056,1.1046,1.1051,1.1036,1.1014,1.1002,1.0977,1.0955,1.0936,1.093,1.0938,1.094,1.0932,1.0927,1.0926,1.0924,1.1015,1.0941,1.0942,1.0942,1.0942,1.0943,1.1071,1.1053,1.1045,1.1027,1.102,1.1009,1.0992,1.099,1.0973,1.0953,1.0958,1.0933,1.0922,1.0898,1.089,1.0869,1.0879,1.0868,1.0865,1.0861,1.0857,1.0932,1.0866,1.0866,1.0866,1.0866,1.0867,0,1.1002,1.0998,1.0981,1.0966,1.0951,1.0963,1.0952,1.0938,1.0916,1.0906,1.089,1.0864,1.0843,1.0838,1.0818,1.0802,1.0805,1.0796,1.0795,1.0793,1.0851,1.0858,1.0793,1.0793,1.0793,1.0793,1.0793,1.0793,1.0965,1.0935,1.0937,1.0903,1.0899,1.0875,1.0867,1.0856,1.0848,1.0819,1.0803,1.08,1.0791,1.077,1.0751,1.075,1.074,1.0729,1.0729,1.0782,1.0789,1.0796,1.0803,1.0728,1.0727,1.0672,1.0672,1.0672]}]]